sat.trackr.live / text

‹ back to catalog

STARLINK-11403 [DTC]

NORAD 63060 · 2025-035J

PAYLOAD ACTIVE UNKNOWN

§ Identity

Operator
Country
US
Launch date
2025-02-21
Launch site
AFETR
Launch vehicle
Mass (kg)
RCS (m²)

Purposes: comms

External: N2YO · Heavens-Above · Gunter

§ Orbital elements

Epoch: 2026-09-21T17:46:00.937632Z

Period
91.67 min
Inclination
42.9990°
Eccentricity
0.0000932
Mean motion
15.70906716 rev/d
Perigee alt
355.7 km
Apogee alt
356.9 km
Semi-major
6,734.4 km
B*
1.6549e-3
RAAN
273.6914°
Arg perigee
288.4757°
Mean anomaly
71.6009°
Rev number
9,205

§ Raw data

STARLINK-11403 [DTC]1 63060U 25035J   26264.74028863  .00218170  00000+0  16549-2 0  99932 63060  42.9990 273.6914 0000932 288.4757  71.6009 15.70906716 92058

JSON: /api/v1/satellites/63060 · /tle

For live sub-satellite position, see the globe view (requires WebGL).

§ Visibility from observer

Set your observer location to see the next 7 days of passes ≥ 10°. The values pass through the URL so the page stays shareable.

No JS? Fill the form by hand. The geolocation button needs JavaScript.